[[{"header":{"parameterUnit":"m.s-1","parameterCategory":1,"la1":30.2991,"la2":30.254,"lo1":-89.0895,"lo2":-89.0444,"dy":0.0017,"dx":0.0017,"nx":28,"ny":28,"refTime":"2025-09-05T09:00:00:Z","depth":0,"parameterNumber":2,"parameterNumberName":"U-component_of_WINDS"},"data":[0,0,0,0,0,0,0,0,0,0,0,0,0,0,0,0,0,0,0,0,0,0,0,0,0,0,0,0,0,0,0,0,0,0,0,0,0,0,0,0,0,0,0,0,0,0,0,0,0,0,0,0,0,0,0,0,0,0,1.8744,1.8744,0,1.8696,1.8695,1.8695,1.8623,1.8622,1.8621,1.862,1.857,1.857,1.857,0,0,0,0,0,0,0,0,0,0,0,0,0,1.8771,1.8771,1.8744,1.8743,1.8743,1.8696,1.8695,1.8695,1.8624,1.8622,1.8621,1.8619,1.857,1.857,1.857,0,0,0,0,0,0,0,0,0,0,0,0,0,1.8745,1.8771,1.8744,1.8702,1.8698,1.8696,1.8695,1.8695,1.8624,1.8622,1.862,1.8619,1.857,1.857,1.857,1.8606,0,0,1.8569,1.8569,0,0,0,0,0,0,0,0,1.8747,1.8744,1.8709,1.8705,1.87,1.8664,1.8687,1.8665,1.8624,1.8652,1.862,1.8618,1.8603,1.86,1.8595,1.8603,1.8601,1.8569,1.8569,1.8569,1.8568,0,0,0,0,0,0,0,1.8749,1.8746,1.8725,1.8708,1.8703,1.8684,1.8678,1.8682,1.8638,1.8649,1.8644,1.8639,1.86,1.8595,1.8593,1.86,1.8569,1.8569,1.8568,1.8568,1.8631,1.8633,0,0,0,0,0,0,1.8757,1.8748,1.8726,1.8724,1.8719,1.8685,1.8679,1.8677,1.8638,1.863,1.8641,1.8636,1.8596,1.8593,1.8591,1.8627,1.8569,1.8568,1.8568,1.8629,1.8631,1.8633,0,0,0,0,0,0,1.8758,1.8756,1.8728,1.8734,1.8729,1.8687,1.8686,1.8677,1.8672,1.8632,1.8623,1.8644,1.8595,1.8591,1.8601,1.8624,1.8568,1.8568,1.8627,1.863,1.8632,1.8701,0,0,0,0,0,0,1.8759,1.8757,1.8771,1.8735,1.8729,1.8741,1.8687,1.8678,1.8672,1.8665,1.8633,1.8625,1.8593,1.8602,1.8601,1.8623,1.8568,1.8625,1.8628,1.8631,1.8696,1.8706,1.8714,0,0,0,0,0,1.876,1.8793,1.8772,1.877,1.8746,1.8742,1.8739,1.8701,1.8675,1.8687,1.8661,1.8626,1.8622,1.8604,1.8602,1.8624,1.8623,1.8627,1.8631,1.8693,1.8704,1.8713,0,0,0,0,0,0,1.8833,1.8787,1.8764,1.8786,1.8768,1.873,1.8745,1.8715,1.8705,1.8699,1.8652,1.8645,1.866,1.8644,1.8624,1.8654,1.8617,1.8621,1.8664,1.8675,1.8683,1.8686,1.8568,0,0,0,0,0,1.8851,1.8853,1.8813,1.8836,1.8829,1.8789,1.8786,1.8758,1.8738,1.873,1.8705,1.8686,1.868,1.8677,1.867,1.8694,1.8684,1.8708,1.8717,1.8724,1.8727,1.8735,1.8744,1.8647,1.8647,1.8647,0,0,1.8889,1.8865,1.8869,1.885,1.8833,1.8834,1.8783,1.8787,1.8786,1.8731,1.8737,1.8718,1.8694,1.871,1.8717,1.8697,1.8752,1.8729,1.8736,1.8734,1.874,1.8749,1.8757,1.8649,1.8649,1.8649,0,0,1.8959,1.8942,1.8957,1.8941,1.8916,1.8889,1.8893,1.8859,1.8843,1.885,1.8806,1.8805,1.8797,1.878,1.8771,1.8831,1.8797,1.883,1.8874,1.8882,1.8889,1.8896,1.8913,1.892,1.8834,1.8834,1.8834,0,1.9009,1.9009,1.8969,1.8974,1.8966,1.8915,1.8929,1.8915,1.8889,1.8884,1.8863,1.8848,1.8829,1.8839,1.8853,1.8849,1.8849,1.8832,1.8891,1.8897,1.8903,1.8919,1.8926,1.8838,1.8837,1.8837,1.8836,0,1.907,1.9071,1.9086,1.9061,1.9055,1.9065,1.9024,1.9023,1.8995,1.897,1.8975,1.895,1.8934,1.8935,1.8909,1.894,1.8928,1.89,1.8861,1.8917,1.8931,1.8937,1.8843,1.8842,1.8841,1.884,0,0,1.9183,1.9134,1.914,1.9126,1.9094,1.9093,1.91,1.9084,1.9082,1.9066,1.9067,1.906,1.9033,1.9022,1.8994,1.9001,1.9045,1.8971,1.897,1.8983,1.9073,1.9092,1.91,1.9024,1.9025,1.9026,1.9074,0,1.9243,1.9251,1.9214,1.9232,1.9229,1.918,1.9185,1.9165,1.9142,1.9135,1.9109,1.9103,1.9069,1.9062,1.9067,1.9039,1.9062,1.9035,1.9023,1.9023,1.9027,1.9108,1.9129,1.9175,1.9079,1.908,1.9081,0,1.9314,1.93,1.9317,1.928,1.9278,1.9283,1.9264,1.926,1.9235,1.9217,1.9203,1.917,1.9171,1.9136,1.9136,1.9118,1.9111,1.9096,1.9097,1.9092,1.9053,1.9102,1.919,1.9195,1.909,1.909,1.9089,0,1.939,1.9375,1.9382,1.9372,1.9331,1.9335,1.9318,1.9291,1.9283,1.9267,1.926,1.9245,1.9236,1.9223,1.9185,1.9164,1.9188,1.9151,1.917,1.9171,1.9175,1.9175,1.926,1.9177,1.9177,1.9176,1.9176,0,1.9459,1.947,1.9415,1.9419,1.9429,1.9386,1.9397,1.9375,1.9351,1.9348,1.9306,1.9304,1.9256,1.9248,1.9219,1.9221,1.9218,1.9201,1.9193,1.9203,1.9205,1.9196,1.919,1.9178,1.9178,1.9178,1.9177,0,1.9544,1.9508,1.9512,1.9472,1.9462,1.9471,1.9436,1.9437,1.941,1.9407,1.9404,1.9361,1.9349,1.9311,1.9291,1.927,1.928,1.9266,1.9288,1.9282,1.9302,1.9299,1.9381,1.9388,1.9304,1.9305,1.9306,0,1.9589,1.9596,1.9556,1.9551,1.9535,1.9529,1.952,1.9477,1.9469,1.944,1.9444,1.9429,1.9414,1.9397,1.9363,1.9346,1.9329,1.9359,1.9327,1.9336,1.9325,1.9324,1.9323,1.9366,1.9367,1.9368,1.9368,0,1.967,1.9651,1.964,1.9622,1.9613,1.9597,1.9578,1.9576,1.9529,1.9522,1.9509,1.9497,1.9475,1.9459,1.9436,1.9417,1.9383,1.9379,1.9382,1.9391,1.9402,1.9393,1.9303,1.9377,1.9376,1.9376,1.9375,1.9375,1.9734,1.9736,1.9708,1.9696,1.9677,1.966,1.9658,1.963,1.9619,1.9597,1.9573,1.9562,1.9534,1.9499,1.9482,1.9472,1.9454,1.946,1.946,1.9461,1.9465,1.9407,1.9468,1.9468,1.9467,1.9467,1.9467,0,1.981,1.9789,1.9778,1.9753,1.9743,1.9714,1.9691,1.9683,1.9675,1.9651,1.9637,1.9621,1.9605,1.9569,1.9549,1.9547,1.9531,1.9543,1.9541,1.9537,1.9483,1.9481,1.9556,1.9556,1.9556,1.9556,1.9556,1.9556,1.9848,1.9849,1.9827,1.9818,1.9796,1.9785,1.9774,1.9757,1.9738,1.9721,1.9708,1.9685,1.9656,1.9633,1.9616,1.9605,1.9598,1.9615,1.9599,1.955,1.9541,1.9533,1.953,1.9614,1.9615,1.9653,1.9653,1.9653]},{"header":{"parameterUnit":"m.s-1","parameterCategory":1,"la1":30.2991,"la2":30.254,"lo1":-89.0895,"lo2":-89.0444,"dy":0.0017,"dx":0.0017,"nx":28,"ny":28,"refTime":"2025-09-05T09:00:00:Z","depth":0,"parameterNumber":3,"parameterNumberName":"V-component_of_WINDS"},"data":[0,0,0,0,0,0,0,0,0,0,0,0,0,0,0,0,0,0,0,0,0,0,0,0,0,0,0,0,0,0,0,0,0,0,0,0,0,0,0,0,0,0,0,0,0,0,0,0,0,0,0,0,0,0,0,0,0,0,1.0828,1.0829,0,1.0903,1.0904,1.0905,1.0911,1.091,1.0909,1.0909,1.0981,1.0984,1.0987,0,0,0,0,0,0,0,0,0,0,0,0,0,1.0685,1.0688,1.0828,1.0829,1.083,1.0903,1.0904,1.0905,1.0911,1.091,1.0909,1.0908,1.0981,1.0984,1.0987,0,0,0,0,0,0,0,0,0,0,0,0,0,1.0752,1.0688,1.0828,1.0842,1.0844,1.0903,1.0904,1.0905,1.0911,1.091,1.0909,1.0908,1.098,1.0983,1.0987,1.1036,0,0,1.1,1.1001,0,0,0,0,0,0,0,0,1.0748,1.0757,1.0839,1.0841,1.0844,1.0897,1.088,1.0949,1.0912,1.0886,1.0909,1.0907,1.0954,1.096,1.0977,1.104,1.1043,1.1,1.1003,1.1004,1.1005,0,0,0,0,0,0,0,1.0744,1.0754,1.0858,1.084,1.0843,1.0843,1.0851,1.0893,1.0925,1.0888,1.0889,1.0897,1.0955,1.0973,1.0978,1.1044,1.1,1.1004,1.1006,1.1008,1.1146,1.1147,0,0,0,0,0,0,1.0737,1.075,1.0855,1.086,1.0792,1.0846,1.0855,1.0881,1.0925,1.0931,1.0898,1.0898,1.0966,1.0974,1.0981,1.1038,1.1004,1.1008,1.101,1.1145,1.1146,1.1148,0,0,0,0,0,0,1.0734,1.0746,1.0852,1.0805,1.0819,1.085,1.0878,1.0883,1.0901,1.0933,1.0938,1.0911,1.0966,1.0975,1.1022,1.1041,1.101,1.1013,1.1143,1.1145,1.1147,1.1155,0,0,0,0,0,0,1.073,1.0745,1.0766,1.0806,1.0821,1.0894,1.088,1.0885,1.0908,1.0907,1.0946,1.0952,1.0966,1.1016,1.1026,1.1046,1.1017,1.1142,1.1144,1.1147,1.1153,1.1157,1.116,0,0,0,0,0,1.0725,1.0765,1.0767,1.0779,1.0848,1.0895,1.0904,1.092,1.091,1.0929,1.0949,1.095,1.1037,1.102,1.1032,1.1054,1.1141,1.1144,1.1146,1.1152,1.1156,1.116,0,0,0,0,0,0,1.0726,1.0771,1.0773,1.0828,1.0858,1.0896,1.0922,1.0925,1.0958,1.0956,1.0973,1.0982,1.1027,1.1045,1.1025,1.1101,1.1088,1.1093,1.1088,1.1092,1.1096,1.109,1.102,0,0,0,0,0,1.0733,1.0769,1.0805,1.085,1.0865,1.0891,1.0912,1.0922,1.0953,1.0965,1.0989,1.1018,1.1051,1.1073,1.1106,1.1156,1.1163,1.1176,1.118,1.1182,1.1186,1.1211,1.1217,1.1157,1.1157,1.1157,0,0,1.0747,1.0776,1.0798,1.0851,1.0875,1.091,1.0901,1.0939,1.0965,1.097,1.1016,1.1034,1.1067,1.1114,1.1137,1.1131,1.1204,1.1186,1.1188,1.1191,1.1214,1.122,1.1225,1.1159,1.1159,1.1159,0,0,1.079,1.0817,1.0856,1.088,1.0917,1.0933,1.0942,1.0979,1.0992,1.1037,1.1041,1.1071,1.1129,1.1151,1.1171,1.1219,1.122,1.1229,1.1247,1.1271,1.1275,1.128,1.1294,1.13,1.1233,1.1233,1.1233,0,1.0803,1.0858,1.0875,1.0912,1.0934,1.0941,1.0979,1.1001,1.1046,1.106,1.1053,1.1124,1.1147,1.1199,1.121,1.1226,1.1235,1.1224,1.1274,1.1278,1.1282,1.1296,1.1302,1.1234,1.1234,1.1233,1.1233,0,1.087,1.0907,1.0934,1.0977,1.1002,1.104,1.106,1.1083,1.109,1.1106,1.115,1.1178,1.1215,1.1228,1.1235,1.1279,1.1274,1.127,1.1257,1.1288,1.1302,1.1308,1.1235,1.1234,1.1234,1.1234,0,0,1.0918,1.0969,1.0978,1.0996,1.1036,1.1064,1.11,1.1137,1.1155,1.1185,1.1214,1.1261,1.1257,1.1279,1.1288,1.1309,1.1342,1.1302,1.1303,1.1307,1.1389,1.1391,1.1397,1.1343,1.1344,1.1345,1.1386,0,1.0964,1.103,1.1045,1.1101,1.1134,1.1139,1.117,1.1197,1.1212,1.124,1.1257,1.1289,1.1282,1.1295,1.1316,1.1334,1.1358,1.1331,1.1368,1.1369,1.1358,1.1405,1.1408,1.1445,1.1391,1.1392,1.1393,0,1.1028,1.1059,1.1118,1.115,1.1165,1.1193,1.1226,1.1254,1.1282,1.1291,1.1314,1.1321,1.1355,1.1341,1.1387,1.1368,1.1384,1.1394,1.1396,1.1399,1.1382,1.1408,1.1458,1.1463,1.1402,1.1401,1.1401,0,1.1054,1.1111,1.1153,1.1168,1.1208,1.1227,1.1244,1.1271,1.1291,1.132,1.1332,1.1364,1.1381,1.1405,1.1418,1.1407,1.1463,1.145,1.147,1.1469,1.1481,1.148,1.1533,1.1493,1.1493,1.1493,1.1493,0,1.1104,1.1139,1.1165,1.119,1.1229,1.1244,1.1282,1.1298,1.1322,1.1349,1.1356,1.1381,1.1398,1.1425,1.1435,1.1471,1.1479,1.1486,1.1488,1.1485,1.1483,1.1494,1.1492,1.1495,1.1494,1.1494,1.1494,0,1.1139,1.1159,1.1204,1.1237,1.1246,1.1273,1.13,1.1323,1.1338,1.1372,1.1381,1.1403,1.1434,1.145,1.149,1.1497,1.1536,1.1537,1.1527,1.1527,1.1545,1.1543,1.1606,1.1614,1.1571,1.1571,1.1571,0,1.1169,1.1197,1.1232,1.1251,1.1268,1.1299,1.1319,1.1334,1.1355,1.1388,1.1407,1.1438,1.1465,1.1514,1.1532,1.1561,1.1563,1.1583,1.1567,1.1562,1.156,1.1558,1.156,1.1585,1.1586,1.1586,1.1586,0,1.122,1.1227,1.1257,1.1289,1.1312,1.1338,1.1364,1.1378,1.1397,1.1419,1.1452,1.1472,1.1511,1.1542,1.1572,1.1587,1.1589,1.1591,1.1597,1.1593,1.1585,1.1587,1.1533,1.1589,1.1589,1.1589,1.1589,1.1588,1.1252,1.1275,1.1303,1.1335,1.1355,1.1378,1.1401,1.1418,1.1446,1.148,1.1486,1.152,1.1544,1.1585,1.1601,1.1625,1.1621,1.163,1.1632,1.1634,1.1633,1.1582,1.1631,1.1631,1.1631,1.1631,1.1631,0,1.1301,1.1319,1.1348,1.1382,1.1407,1.1407,1.1434,1.1454,1.1484,1.1507,1.1532,1.1567,1.1596,1.1616,1.1645,1.1661,1.1662,1.1668,1.1666,1.1669,1.1637,1.1628,1.1666,1.1666,1.1666,1.1666,1.1666,1.1666,1.1329,1.1368,1.1378,1.1425,1.1442,1.1475,1.149,1.151,1.1529,1.1568,1.1592,1.1606,1.1627,1.1656,1.1682,1.1687,1.1696,1.1701,1.1706,1.1675,1.1672,1.1668,1.166,1.1704,1.1704,1.1736,1.1736,1.1736]}]]